CAPE
0 0 0 0 0 0 0 0 0 0 0 0 0 0 0 0 0 0 0 0 14 794 307 38 270 551 708 133 207 108 30 0 0 0 0 24 113 254 428 620 783 622 923 628 1492
0 0 0 0 0 0 0 0 0 0 0 0 0 0 0 0 0 0 0 388 593 975 7 44 75 387 124 3 1 7 0 0 0 0 0 0 16 158 454 531 859 885 1279 1043 1520
0 0 0 0 0 0 0 0 0 0 0 0 0 0 0 0 0 0 250 730 576 201 0 0 0 20 0 0 0 0 0 0 0 0 0 0 0 70 384 539 564 965 1470 1237 1358
0 0 0 0 0 0 0 0 0 0 0 0 0 0 0 0 0 0 691 677 577 6 0 0 0 0 0 0 0 0 0 0 0 0 2 10 21 86 247 319 500 672 1301 1194 1210
0 0 0 0 0 0 0 0 0 0 0 0 0 0 0 0 0 26 939 510 0 0 0 0 0 0 0 0 0 0 0 0 0 0 24 26 47 77 144 203 372 915 1178 1171 976
0 0 0 0 0 0 0 0 0 0 0 0 0 0 0 0 0 0 0 0 0 0 0 0 0 0 0 0 0 0 0 0 0 0 55 60 110 138 315 307 579 1072 1128 1204 1108
0 0 0 0 0 0 0 0 0 0 0 0 0 0 0 0 0 0 0 0 0 0 0 0 0 0 0 0 0 0 0 0 1 0 0 33 93 161 184 573 917 1064 1089 1280 1483
0 0 0 0 0 0 0 0 0 0 0 0 0 0 0 0 0 0 0 0 0 0 0 0 0 0 0 0 0 0 0 0 3 0 0 0 5 0 256 677 1048 1245 1155 1434 1787
0 0 0 0 0 0 0 0 0 0 0 0 0 0 0 0 0 0 0 0 0 0 0 0 0 0 0 0 0 0 0 0 0 0 0 0 0 0 208 581 1106 1505 1541 1581 1975
1 2 1 0 0 0 0 0 0 0 0 0 0 0 0 0 0 0 0 0 0 0 0 0 0 0 0 0 0 0 0 0 0 0 0 0 0 0 40 412 920 1323 1895 1809 1866
0 1 2 0 0 0 0 0 0 0 0 0 0 0 0 0 0 0 0 0 0 0 0 0 0 0 0 0 0 0 0 0 0 0 0 0 0 0 77 224 854 1297 1699 1849 1834
0 1 1 0 0 0 0 0 0 0 0 0 0 0 0 0 0 0 0 0 0 0 0 0 0 0 0 0 0 0 0 0 0 0 0 0 0 86 557 441 404 1156 1501 1696 1797
2 2 1 0 0 0 0 0 0 0 0 0 0 0 0 0 0 0 0 0 0 0 0 0 0 0 0 0 0 0 0 0 0 0 0 0 0 57 365 1063 721 592 1186 1551 1770
3 3 1 0 0 0 0 0 0 0 0 0 0 0 0 0 0 0 0 0 0 0 0 0 0 0 0 0 0 0 0 0 0 0 0 0 1 35 304 1183 1360 1037 1131 1514 1805
0 4 4 0 0 0 0 0 0 0 0 0 0 0 0 0 0 0 0 0 0 0 0 0 0 0 0 0 0 0 0 0 0 0 0 0 0 65 688 467 1308 1574 1500 1509 1812
1 1 6 0 0 0 0 0 0 0 0 0 0 0 0 0 0 0 0 0 0 0 0 0 0 0 0 0 0 0 0 0 0 0 0 0 0 0 17 0 527 1752 1691 1561 1681
0 0 2 0 0 0 0 0 0 0 0 0 0 0 0 0 0 0 0 0 0 0 0 0 0 0 0 0 0 0 0 0 0 0 0 0 0 0 0 140 698 1210 1735 1722 1782
0 0 0 0 0 0 0 0 0 0 0 0 0 0 0 0 0 0 0 0 0 0 0 0 0 0 0 0 0 0 0 0 1 0 1 1 0 0 0 170 1196 1067 1656 1377 1264
0 0 0 0 0 0 0 0 0 0 0 0 0 0 0 0 0 0 0 0 0 0 0 0 0 0 0 0 0 0 0 0 0 0 0 0 0 0 0 108 861 1368 1672 1605 965
0 0 0 0 0 0 0 0 0 0 0 0 0 0 0 0 0 0 0 0 0 0 0 0 0 0 0 0 0 0 0 0 0 0 0 0 0 0 84 185 1264 1422 1944 2242 1674
0 0 0 0 0 0 0 0 0 0 0 0 0 0 0 0 0 0 0 0 0 0 0 0 0 0 0 0 0 0 0 0 0 1 3 6 18 0 0 194 1057 1436 1662 2309 2165
0 0 0 0 0 0 0 0 0 0 0 0 0 0 0 0 0 0 0 0 0 0 0 0 0 0 0 0 0 0 0 0 0 9 0 4 18 0 0 313 1182 1440 1771 2163 1714
0 0 0 0 0 0 0 0 0 0 0 0 0 0 0 0 0 0 0 0 0 2 2 0 0 0 2 0 0 0 0 0 0 71 45 48 75 128 481 696 1048 1821 2251 2070 1210
0 0 0 0 0 0 0 0 0 0 0 0 0 0 0 0 0 0 0 0 0 14 0 0 15 32 43 68 14 0 0 0 1 24 38 73 88 550 711 719 1017 1385 2228 2175 1637
0 0 1 0 0 0 0 0 0 0 0 0 0 0 0 0 0 0 0 0 0 0 173 271 284 81 27 17 0 7 9 0 5 34 158 180 121 860 910 938 984 1198 2086 2287 2175
0 0 0 0 0 0 0 0 0 0 0 0 0 0 0 0 0 0 0 0 0 0 60 233 315 298 233 23 90 50 53 67 77 111 168 289 518 971 1108 1162 1167 1277 1148 1574 2164
0 0 0 0 23 17 16 0 0 0 0 0 0 0 0 0 0 0 5 72 77 59 29 92 253 219 261 142 143 122 124 106 131 222 461 291 1232 1227 1317 1358 1950 1928 1811 1482 1206
CIN
-0 -0 -0 -0 -0 -0 -0 -0 -0 -0 -0 -0 -0 -0 -0 -0 -0 -0 -0 -0 -172 -603 -645 -361 -296 -213 -197 -213 -221 -176 -9 -0 -0 -0 -0 -15 -15 -36 -30 -33 -45 -57 -20 -35 -60
-0 -0 -0 -0 -0 -0 -0 -0 -0 -0 -0 -0 -0 -0 -0 -0 -0 -0 -0 -707 -702 -594 -119 -238 -206 -176 -132 -39 -24 -21 -0 -0 -0 -0 -0 -0 -29 -18 -45 -25 -46 -55 -77 -70 -76
-0 -0 -0 -0 -0 -0 -0 -0 -0 -0 -0 -0 -0 -0 -0 -0 -0 -0 -710 -628 -627 -727 -0 -0 -0 -154 -0 -0 -0 -0 -0 -0 -0 -0 -0 -0 -0 -35 -26 -16 -24 -25 -48 -92 -64
-0 -0 -0 -0 -0 -0 -0 -0 -0 -0 -0 -0 -0 -0 -0 -0 -0 -0 -647 -626 -596 -18 -0 -0 -0 -0 -0 -0 -0 -0 -0 -0 -0 -0 -7 -45 -24 -20 -23 -7 -29 -25 -45 -74 -60
-0 -0 -0 -0 -0 -0 -0 -0 -0 -0 -0 -0 -0 -0 -0 -0 -0 -418 -559 -592 -0 -0 -0 -0 -0 -0 -0 -0 -0 -0 -0 -0 -0 -0 -36 -71 -45 -23 -30 -31 -60 -40 -58 -65 -58
-0 -0 -0 -0 -0 -0 -0 -0 -0 -0 -0 -0 -0 -0 -0 -0 -0 -0 -0 -0 -0 -0 -0 -0 -0 -0 -0 -0 -0 -0 -0 -0 -0 -0 -34 -26 -13 -51 -59 -74 -79 -66 -53 -46 -49
-0 -0 -0 -0 -0 -0 -0 -0 -0 -0 -0 -0 -0 -0 -0 -0 -0 -0 -0 -0 -0 -0 -0 -0 -0 -0 -0 -0 -0 -0 -0 -0 -0 -0 -0 -32 -2 -12 -58 -103 -84 -58 -53 -54 -50
-0 -0 -0 -0 -0 -0 -0 -0 -0 -0 -0 -0 -0 -0 -0 -0 -0 -0 -0 -0 -0 -0 -0 -0 -0 -0 -0 -0 -0 -0 -0 -0 -0 -0 -0 -0 -0 -0 -57 -69 -79 -65 -61 -64 -60
-0 -0 -0 -0 -0 -0 -0 -0 -0 -0 -0 -0 -0 -0 -0 -0 -0 -0 -0 -0 -0 -0 -0 -0 -0 -0 -0 -0 -0 -0 -0 -0 -0 -0 -0 -0 -0 -0 -46 -58 -80 -79 -72 -59 -71
-0 -0 -0 -0 -0 -0 -0 -0 -0 -0 -0 -0 -0 -0 -0 -0 -0 -0 -0 -0 -0 -0 -0 -0 -0 -0 -0 -0 -0 -0 -0 -0 -0 -0 -0 -0 -0 -0 -57 -55 -69 -111 -98 -73 -78
-0 -0 -0 -0 -0 -0 -0 -0 -0 -0 -0 -0 -0 -0 -0 -0 -0 -0 -0 -0 -0 -0 -0 -0 -0 -0 -0 -0 -0 -0 -0 -0 -0 -0 -0 -0 -0 -0 -69 -59 -75 -114 -121 -115 -102
-0 -0 -0 -0 -0 -0 -0 -0 -0 -0 -0 -0 -0 -0 -0 -0 -0 -0 -0 -0 -0 -0 -0 -0 -0 -0 -0 -0 -0 -0 -0 -0 -0 -0 -0 -0 -0 -39 -61 -98 -67 -81 -106 -121 -117
-0 -0 -0 -0 -0 -0 -0 -0 -0 -0 -0 -0 -0 -0 -0 -0 -0 -0 -0 -0 -0 -0 -0 -0 -0 -0 -0 -0 -0 -0 -0 -0 -0 -0 -0 -0 -0 -22 -52 -102 -119 -87 -90 -110 -124
-0 -0 -0 -0 -0 -0 -0 -0 -0 -0 -0 -0 -0 -0 -0 -0 -0 -0 -0 -0 -0 -0 -0 -0 -0 -0 -0 -0 -0 -0 -0 -0 -0 -0 -0 -0 -0 -10 -17 -29 -95 -79 -93 -104 -102
-0 -0 -0 -0 -0 -0 -0 -0 -0 -0 -0 -0 -0 -0 -0 -0 -0 -0 -0 -0 -0 -0 -0 -0 -0 -0 -0 -0 -0 -0 -0 -0 -0 -0 -0 -0 -0 -0 -22 -7 -22 -84 -143 -134 -99
-0 -0 -0 -0 -0 -0 -0 -0 -0 -0 -0 -0 -0 -0 -0 -0 -0 -0 -0 -0 -0 -0 -0 -0 -0 -0 -0 -0 -0 -0 -0 -0 -0 -0 -0 -0 -0 -0 -0 -0 -3 -94 -145 -155 -168
-0 -0 -0 -0 -0 -0 -0 -0 -0 -0 -0 -0 -0 -0 -0 -0 -0 -0 -0 -0 -0 -0 -0 -0 -0 -0 -0 -0 -0 -0 -0 -0 -0 -0 -0 -0 -0 -0 -0 -19 -46 -60 -136 -187 -176
-0 -0 -0 -0 -0 -0 -0 -0 -0 -0 -0 -0 -0 -0 -0 -0 -0 -0 -0 -0 -0 -0 -0 -0 -0 -0 -0 -0 -0 -0 -0 -0 -0 -0 -0 -11 -0 -0 -0 -22 -81 -140 -140 -214 -216
-0 -0 -0 -0 -0 -0 -0 -0 -0 -0 -0 -0 -0 -0 -0 -0 -0 -0 -0 -0 -0 -0 -0 -0 -0 -0 -0 -0 -0 -0 -0 -0 -0 -0 -0 -0 -0 -0 -0 -25 -47 -90 -153 -178 -209
-0 -0 -0 -0 -0 -0 -0 -0 -0 -0 -0 -0 -0 -0 -0 -0 -0 -0 -0 -0 -0 -0 -0 -0 -0 -0 -0 -0 -0 -0 -0 -0 -0 -0 -0 -0 -0 -0 -1 -0 -35 -89 -99 -120 -164
-0 -0 -0 -0 -0 -0 -0 -0 -0 -0 -0 -0 -0 -0 -0 -0 -0 -0 -0 -0 -0 -0 -0 -0 -0 -0 -0 -0 -0 -0 -0 -0 -0 -0 -0 -0 -0 -0 -0 -13 -14 -50 -73 -88 -113
-0 -0 -0 -0 -0 -0 -0 -0 -0 -0 -0 -0 -0 -0 -0 -0 -0 -0 -0 -0 -0 -0 -0 -0 -0 -0 -0 -0 -0 -0 -0 -0 -0 -3 -0 -14 -0 -0 -0 -21 -33 -25 -66 -87 -119
-0 -0 -0 -0 -0 -0 -0 -0 -0 -0 -0 -0 -0 -0 -0 -0 -0 -0 -0 -0 -0 -3 -8 -0 -0 -0 -0 -0 -0 -0 -0 -0 -0 -30 -8 -1 -0 -5 -20 -30 -81 -58 -76 -147 -182
-0 -0 -0 -0 -0 -0 -0 -0 -0 -0 -0 -0 -0 -0 -0 -0 -0 -0 -0 -0 -0 -60 -0 -0 -22 -21 -0 -0 -4 -0 -0 -0 -12 -0 -0 -0 -0 -5 -53 -65 -87 -94 -98 -159 -161
-0 -0 -12 -0 -0 -0 -0 -0 -0 -0 -0 -0 -0 -0 -0 -0 -0 -0 -0 -0 -0 -0 -103 -40 -18 -26 -19 -38 -0 -2 -0 -0 -7 -0 -0 -0 -0 -50 -107 -131 -136 -150 -134 -145 -130
-0 -0 -0 -0 -2 -1 -0 -0 -0 -0 -0 -0 -0 -0 -0 -0 -0 -0 -0 -0 -0 -0 -39 -51 -8 -24 -6 -31 -18 -8 -7 -5 -2 -0 -6 -7 -6 -103 -112 -148 -187 -192 -177 -156 -155
-0 -0 -0 -0 -40 -53 -6 -0 -0 -0 -0 -0 -0 -0 -0 -0 -0 -0 -62 -32 -43 -55 -58 -48 -15 -14 -0 -16 -14 -6 -8 -11 -5 -30 -18 -0 -48 -113 -137 -176 -170 -197 -188 -195 -199
Wind_Speed
19 19 19 18 18 18 19 18 18 18 18 19 18 14 14 12 11 7 9 1 11 20 15 16 10 8 9 6 5 5 7 7 13 12 11 7 4 4 1 7 6 6 2 8 18
19 19 19 19 19 19 19 19 19 20 18 18 19 19 14 12 8 10 4 15 27 18 18 16 11 10 5 4 4 8 6 10 10 10 14 9 6 6 7 8 8 8 7 14 18
19 19 19 19 20 20 19 19 18 19 19 18 17 19 17 13 9 5 9 13 23 18 13 7 7 9 7 4 2 4 9 15 13 11 14 13 7 8 11 8 9 11 14 17 17
18 20 21 21 21 21 21 21 20 19 19 19 17 18 17 7 2 5 13 23 16 13 11 8 7 8 8 6 1 9 13 11 15 14 11 8 6 4 11 5 5 8 17 19 17
20 20 21 21 22 22 22 21 20 20 19 19 16 15 10 7 2 7 15 18 22 11 14 10 9 8 12 6 7 11 13 14 15 15 8 6 5 5 4 1 3 12 17 17 16
20 20 21 22 22 23 22 22 21 20 20 18 15 12 7 10 7 12 15 20 14 13 12 10 7 7 10 10 9 11 15 19 11 7 3 8 3 3 6 7 7 12 16 16 15
21 21 21 22 24 24 24 24 23 21 20 16 10 6 8 10 4 10 16 17 13 13 10 8 6 9 3 9 5 10 14 17 3 5 7 8 11 2 4 8 10 13 14 13 12
21 21 22 23 24 25 26 25 23 21 13 9 6 6 8 4 7 9 13 11 11 13 8 3 6 9 9 6 11 12 15 15 9 3 3 10 10 9 4 7 9 12 14 12 11
20 22 23 24 25 26 27 27 25 10 4 5 7 6 8 6 8 12 14 10 14 10 7 3 7 8 6 13 15 14 14 15 11 1 10 6 14 6 3 5 9 12 14 14 14
20 21 23 24 25 26 30 26 5 6 6 5 4 7 8 3 4 5 9 11 11 11 8 9 9 11 11 11 14 16 12 13 10 3 12 14 11 7 3 4 9 11 13 16 17
20 21 23 25 26 26 18 5 7 8 9 12 2 8 2 1 5 9 9 11 11 13 15 12 11 13 14 10 10 9 11 18 15 13 10 14 9 5 4 5 9 13 14 16 17
20 21 22 25 27 25 10 5 6 6 11 11 16 18 17 8 6 10 9 12 12 17 16 9 16 12 5 7 10 11 13 16 14 7 9 13 6 2 3 2 7 13 14 16 15
20 20 22 26 27 11 7 3 6 5 9 8 12 14 13 13 14 17 16 15 14 16 16 18 10 4 8 13 13 15 15 13 15 7 13 11 11 9 5 4 5 11 12 14 14
20 20 20 28 8 9 2 2 9 4 8 9 9 8 8 10 10 18 18 15 13 16 16 13 14 12 15 14 14 15 8 6 12 11 15 10 8 9 6 6 6 8 11 10 13
19 20 18 12 11 6 6 10 8 6 8 5 10 5 5 14 3 11 16 19 20 17 10 15 10 11 17 17 11 12 3 8 12 13 17 11 9 5 6 9 9 9 8 9 11
21 18 19 4 6 10 10 11 6 9 11 4 5 10 12 14 11 6 10 13 15 22 15 20 4 8 11 9 10 5 10 11 9 13 12 16 7 12 6 6 2 7 9 9 9
24 21 14 5 4 6 10 6 8 12 4 9 7 9 9 12 15 15 15 18 15 16 17 19 18 15 10 14 12 10 12 10 10 11 12 7 7 8 10 2 4 4 7 8 9
26 26 4 7 4 7 6 8 13 10 19 4 4 8 11 7 12 15 18 19 23 22 16 20 18 20 16 21 15 17 16 12 10 11 8 7 8 5 4 3 3 5 6 9 9
28 4 5 2 4 6 8 15 12 14 4 8 10 10 10 7 6 10 18 19 18 20 20 14 15 5 8 17 18 15 11 12 11 9 9 13 3 10 14 12 7 8 11 12 13
8 6 3 2 6 8 10 18 13 3 8 6 11 3 8 4 8 8 13 10 11 15 20 11 10 10 10 8 6 13 5 11 10 15 12 10 4 9 7 6 7 11 13 14 13
6 6 7 3 8 7 11 16 16 7 7 5 3 5 6 3 6 6 6 7 5 9 12 14 11 9 10 13 14 10 13 11 12 6 10 11 8 4 7 4 4 9 12 14 14
5 5 5 3 7 6 12 9 4 11 13 11 7 8 8 9 8 5 6 4 3 6 10 16 11 15 13 5 4 6 9 15 12 14 11 9 10 7 6 4 1 3 10 11 9
7 5 5 3 6 9 10 10 11 12 12 10 12 7 9 9 6 5 2 4 4 5 6 8 9 12 15 8 7 12 13 12 10 7 11 10 8 7 5 4 5 2 7 7 6
5 4 5 5 5 7 4 10 12 9 13 14 16 13 12 11 11 8 5 4 1 2 3 5 4 12 12 10 7 18 15 14 14 11 13 12 14 13 10 10 11 0 6 7 7
4 1 4 1 8 9 8 9 10 9 9 6 11 18 16 15 14 13 13 6 6 6 3 4 6 5 5 3 5 7 13 16 17 18 10 10 8 11 9 10 10 8 1 6 8
5 4 4 9 6 8 5 9 11 9 9 10 12 10 14 17 15 11 12 7 4 5 2 1 2 4 8 4 4 8 7 8 13 6 9 5 9 9 6 10 11 11 7 1 7
3 3 5 3 6 6 3 5 7 8 7 13 10 10 11 13 17 5 6 5 3 2 1 3 2 6 8 2 6 10 4 7 6 2 6 10 8 7 8 9 12 13 12 9 6
Wind_Direction
1 357 352 351 346 344 340 339 336 333 332 330 330 325 324 327 304 199 239 133 171 169 156 154 176 178 198 263 244 263 270 19 22 359 348 98 253 163 119 156 180 169 71 106 137
358 354 351 348 343 340 336 335 334 329 328 327 325 322 324 326 261 243 99 136 148 174 164 172 173 174 226 261 243 271 307 354 353 335 321 324 243 181 206 195 194 164 111 138 152
354 350 347 344 341 337 332 330 329 323 323 320 319 315 317 313 260 83 133 143 157 189 175 194 171 204 261 256 179 304 303 327 331 357 319 309 242 225 211 206 219 189 155 161 164
352 347 344 341 339 334 329 326 324 320 316 313 315 311 311 246 304 59 151 151 165 197 186 189 191 228 262 262 228 280 303 314 316 325 325 304 309 221 232 254 199 165 157 166 173
350 346 342 337 332 329 325 320 318 315 311 309 314 313 295 259 268 98 144 157 169 203 192 203 225 260 272 302 283 251 301 309 305 318 322 308 264 305 301 245 226 141 158 171 172
348 344 339 334 329 326 321 317 314 312 308 308 308 307 261 272 102 136 153 168 191 206 216 227 250 275 283 283 276 327 305 298 307 318 102 301 13 248 68 145 162 158 170 172 167
347 343 337 333 328 323 319 316 313 311 306 302 290 261 259 269 137 149 161 184 200 218 227 226 266 244 310 258 302 284 290 296 176 357 19 321 231 158 76 178 165 168 175 169 159
346 340 335 330 326 322 317 313 311 307 299 285 220 237 267 118 165 183 190 191 211 221 254 268 242 264 258 293 249 260 273 269 105 303 59 327 337 36 131 173 161 161 173 169 165
346 340 334 330 326 321 316 312 305 293 286 154 223 254 266 127 211 215 199 216 197 206 210 199 225 258 201 240 247 231 260 271 288 315 305 305 314 100 146 172 158 173 177 183 179
344 340 334 329 325 322 317 297 282 262 215 237 259 247 207 199 147 164 192 228 199 176 180 212 221 233 218 238 245 257 250 254 259 294 299 294 299 68 60 212 173 184 186 193 195
344 340 334 328 324 322 323 286 225 189 207 258 358 278 205 280 211 205 176 189 210 211 222 202 240 227 241 241 309 304 278 276 280 283 273 280 296 345 322 221 183 189 199 200 205
343 338 335 328 323 317 283 338 58 335 298 250 252 257 265 282 273 216 179 201 201 217 214 206 235 252 259 260 245 249 261 270 278 310 241 273 285 284 305 257 226 204 209 209 198
338 337 335 327 319 294 325 72 351 309 255 263 226 250 233 197 237 237 193 214 220 226 209 237 253 74 227 233 237 245 257 275 281 250 261 267 234 216 199 248 248 224 220 212 201
334 335 338 328 290 345 283 45 318 249 263 226 212 219 185 221 241 226 203 215 217 237 224 246 260 240 238 245 249 253 250 283 284 261 248 205 274 198 198 235 216 219 224 214 204
331 331 332 325 313 281 15 316 314 230 262 131 169 88 158 200 19 188 207 206 234 218 219 224 215 226 232 235 228 255 355 296 289 260 257 210 250 146 174 259 214 221 219 222 208
324 325 328 203 249 272 313 310 241 230 232 206 176 194 195 207 219 136 189 232 232 242 215 257 185 218 229 208 223 275 270 248 250 253 228 243 253 273 206 236 92 183 221 217 206
318 314 299 296 295 349 310 245 218 243 120 205 204 194 218 230 219 217 192 197 204 211 222 227 221 223 232 236 215 236 249 248 216 215 244 106 247 275 328 225 284 225 195 198 200
316 310 189 237 235 306 238 221 233 226 235 86 270 253 241 189 222 212 222 225 214 219 233 220 231 215 217 231 235 212 244 257 261 254 246 152 260 269 303 208 189 226 181 180 188
310 279 254 159 224 235 237 216 224 246 321 273 255 264 232 196 271 218 220 224 217 220 227 230 240 139 234 214 220 221 234 263 274 253 278 277 288 242 233 244 211 199 184 185 189
309 294 252 93 174 206 231 236 232 319 302 253 261 244 251 204 239 205 198 222 227 213 228 214 249 185 169 191 200 262 233 211 228 264 265 264 251 270 218 251 209 197 193 187 196
267 287 62 176 199 210 235 231 244 214 282 301 291 274 262 308 291 262 200 124 214 187 220 226 229 176 174 205 214 181 227 239 288 306 287 273 259 143 267 306 252 202 189 181 187
295 267 88 180 217 214 239 225 309 256 226 259 278 272 280 313 302 270 233 15 20 191 197 216 227 235 209 181 309 253 242 204 225 205 241 288 289 141 262 9 324 193 179 170 178
305 288 137 282 244 211 226 251 244 256 239 239 242 248 273 286 281 261 250 99 16 202 179 169 222 224 231 204 201 235 228 233 239 285 263 264 244 116 47 17 43 288 158 174 176
287 272 149 210 284 293 261 236 238 219 260 256 257 258 256 256 252 280 253 159 88 17 328 198 228 248 252 230 223 204 224 215 219 233 231 218 263 83 32 30 24 98 192 181 189
225 58 5 245 226 250 283 301 273 251 227 251 235 240 245 245 254 242 250 220 181 143 203 261 244 232 265 285 235 247 230 206 216 233 267 323 180 57 24 20 26 18 213 192 207
306 334 339 281 275 259 214 265 271 281 241 245 235 251 225 231 238 239 243 250 251 161 194 191 212 270 230 200 227 226 229 216 220 232 248 247 122 46 47 33 24 26 21 284 234
2 259 280 282 238 251 210 291 320 315 258 250 283 279 260 246 241 304 297 344 38 326 92 319 310 252 236 179 238 217 174 229 171 210 292 229 52 34 40 32 42 27 22 12 336